[[{"header":{"parameterUnit":"m.s-1","parameterCategory":1,"la1":30.2991,"la2":30.254,"lo1":-89.0895,"lo2":-89.0444,"dy":0.0017,"dx":0.0017,"nx":28,"ny":28,"refTime":"2023-10-28T03:00:00:Z","depth":0,"parameterNumber":2,"parameterNumberName":"U-component_of_WINDS"},"data":[0,0,0,0,0,0,0,0,0,0,0,0,0,0,0,0,0,0,0,0,0,0,0,0,0,0,0,0,0,0,0,0,0,0,0,0,0,0,0,0,0,0,0,0,0,0,0,0,0,0,0,0,0,0,0,0,0,0,-2.5019,-2.5019,0,-2.5026,-2.5026,-2.5026,-2.498,-2.4979,-2.4977,-2.4976,-2.4982,-2.4983,-2.4984,0,0,0,0,0,0,0,0,0,0,0,0,0,-2.4965,-2.4966,-2.5019,-2.5019,-2.502,-2.5026,-2.5026,-2.5026,-2.498,-2.4979,-2.4977,-2.4976,-2.4981,-2.4983,-2.4984,0,0,0,0,0,0,0,0,0,0,0,0,0,-2.4982,-2.4967,-2.5019,-2.4997,-2.4995,-2.5026,-2.5026,-2.5026,-2.4981,-2.4979,-2.4977,-2.4975,-2.4981,-2.4983,-2.4985,-2.5036,0,0,-2.4991,-2.4992,0,0,0,0,0,0,0,0,-2.4981,-2.4984,-2.5001,-2.4999,-2.4997,-2.5,-2.5009,-2.503,-2.4981,-2.4986,-2.4976,-2.4974,-2.4989,-2.499,-2.4996,-2.5036,-2.5037,-2.4991,-2.4992,-2.4993,-2.4994,0,0,0,0,0,0,0,-2.498,-2.4983,-2.5022,-2.5001,-2.4999,-2.4987,-2.4987,-2.5013,-2.4999,-2.4986,-2.4982,-2.4984,-2.4988,-2.4994,-2.4996,-2.5037,-2.4991,-2.4993,-2.4994,-2.4995,-2.512,-2.5122,0,0,0,0,0,0,-2.4982,-2.4983,-2.5022,-2.5022,-2.4984,-2.4989,-2.499,-2.5001,-2.4998,-2.4996,-2.4985,-2.4982,-2.4992,-2.4993,-2.4996,-2.5055,-2.4993,-2.4995,-2.4996,-2.5118,-2.512,-2.5122,0,0,0,0,0,0,-2.4981,-2.4986,-2.5021,-2.5002,-2.5005,-2.4992,-2.5006,-2.5002,-2.5008,-2.4998,-2.4995,-2.4995,-2.499,-2.4993,-2.5027,-2.5055,-2.4996,-2.4998,-2.5115,-2.5118,-2.5121,-2.5175,0,0,0,0,0,0,-2.498,-2.4986,-2.5005,-2.5002,-2.5007,-2.5053,-2.5007,-2.5004,-2.5012,-2.5007,-2.5006,-2.5004,-2.4989,-2.5024,-2.5029,-2.5057,-2.4999,-2.5112,-2.5116,-2.512,-2.5171,-2.518,-2.5187,0,0,0,0,0,-2.4978,-2.502,-2.5007,-2.5012,-2.5031,-2.5054,-2.5056,-2.5039,-2.5015,-2.5034,-2.5028,-2.5004,-2.5052,-2.5028,-2.5033,-2.5062,-2.511,-2.5115,-2.512,-2.5167,-2.5178,-2.5187,0,0,0,0,0,0,-2.5026,-2.5019,-2.5004,-2.5047,-2.5052,-2.5046,-2.507,-2.5051,-2.5062,-2.5057,-2.5035,-2.5035,-2.5072,-2.5071,-2.5044,-2.5111,-2.5077,-2.5083,-2.5111,-2.5121,-2.5129,-2.5128,-2.5001,0,0,0,0,0,-2.5041,-2.5061,-2.5054,-2.5093,-2.5096,-2.5083,-2.5092,-2.5079,-2.5083,-2.5084,-2.508,-2.5084,-2.51,-2.5111,-2.5125,-2.5171,-2.517,-2.5194,-2.5202,-2.5209,-2.5214,-2.5238,-2.5248,-2.5138,-2.5138,-2.5138,0,0,-2.5073,-2.5072,-2.5086,-2.5102,-2.5104,-2.5125,-2.5085,-2.5108,-2.5123,-2.5087,-2.5119,-2.5116,-2.5119,-2.5159,-2.5177,-2.5159,-2.5244,-2.5215,-2.5221,-2.5221,-2.5243,-2.5254,-2.5263,-2.5141,-2.514,-2.514,0,0,-2.5142,-2.5144,-2.5176,-2.5179,-2.5183,-2.5174,-2.5182,-2.518,-2.5177,-2.5209,-2.5182,-2.52,-2.5228,-2.5231,-2.5236,-2.5308,-2.5286,-2.5314,-2.5356,-2.538,-2.5389,-2.5396,-2.5421,-2.543,-2.5319,-2.5319,-2.5319,0,-2.5181,-2.5211,-2.5194,-2.522,-2.5227,-2.5197,-2.5229,-2.5233,-2.5241,-2.5247,-2.5227,-2.5262,-2.5262,-2.5302,-2.532,-2.5326,-2.5333,-2.5313,-2.5389,-2.5396,-2.5403,-2.5426,-2.5436,-2.5322,-2.5322,-2.5322,-2.5321,0,-2.5259,-2.5281,-2.5306,-2.5315,-2.5326,-2.5355,-2.5341,-2.5354,-2.534,-2.5334,-2.5366,-2.5366,-2.5379,-2.5388,-2.5374,-2.5426,-2.5415,-2.5393,-2.5357,-2.5417,-2.5438,-2.5447,-2.5327,-2.5326,-2.5325,-2.5324,0,0,-2.5355,-2.5356,-2.5366,-2.537,-2.5373,-2.5389,-2.5417,-2.543,-2.5441,-2.5449,-2.5471,-2.5496,-2.5475,-2.5482,-2.5468,-2.5489,-2.5545,-2.5464,-2.5464,-2.5478,-2.5601,-2.5617,-2.5627,-2.5532,-2.5533,-2.5535,-2.5601,0,-2.5421,-2.5468,-2.5454,-2.5501,-2.5521,-2.5494,-2.5517,-2.5522,-2.5517,-2.5532,-2.5527,-2.5544,-2.5517,-2.552,-2.554,-2.5534,-2.5569,-2.5529,-2.555,-2.5551,-2.5549,-2.5639,-2.5655,-2.5717,-2.5609,-2.561,-2.5611,0,-2.5504,-2.5515,-2.5565,-2.5565,-2.5573,-2.5594,-2.5606,-2.5622,-2.5626,-2.5621,-2.5629,-2.5612,-2.5638,-2.5604,-2.564,-2.5613,-2.5622,-2.562,-2.5622,-2.5622,-2.5584,-2.5639,-2.5737,-2.5746,-2.5625,-2.5624,-2.5623,0,-2.5568,-2.5596,-2.5629,-2.5633,-2.5635,-2.5651,-2.5652,-2.5655,-2.5664,-2.5674,-2.568,-2.5694,-2.57,-2.5711,-2.5698,-2.5674,-2.5735,-2.57,-2.5731,-2.5731,-2.5743,-2.5742,-2.5841,-2.5751,-2.5751,-2.5751,-2.5751,0,-2.5642,-2.5673,-2.5658,-2.5678,-2.5711,-2.5695,-2.5729,-2.5727,-2.573,-2.5749,-2.5727,-2.5745,-2.5727,-2.5744,-2.5734,-2.5764,-2.5768,-2.5764,-2.576,-2.5765,-2.5765,-2.5768,-2.5763,-2.5754,-2.5753,-2.5753,-2.5752,0,-2.5718,-2.5709,-2.5743,-2.5743,-2.5743,-2.5768,-2.5767,-2.5785,-2.578,-2.5804,-2.5809,-2.5799,-2.5818,-2.5806,-2.5824,-2.5818,-2.5857,-2.5849,-2.5856,-2.5853,-2.5884,-2.588,-2.5987,-2.6,-2.5903,-2.5904,-2.5905,0,-2.5765,-2.5788,-2.579,-2.5802,-2.5805,-2.5824,-2.5833,-2.5819,-2.583,-2.5838,-2.5855,-2.5872,-2.5884,-2.5914,-2.5909,-2.5923,-2.5913,-2.595,-2.5915,-2.5919,-2.5912,-2.591,-2.5912,-2.5956,-2.5957,-2.5958,-2.5959,0,-2.5849,-2.5843,-2.5859,-2.5873,-2.5886,-2.5896,-2.5904,-2.5915,-2.59,-2.5914,-2.5933,-2.5943,-2.5962,-2.5979,-2.5991,-2.5991,-2.5973,-2.5971,-2.5978,-2.5982,-2.5984,-2.5982,-2.5873,-2.5968,-2.5967,-2.5966,-2.5966,-2.5965,-2.591,-2.593,-2.5935,-2.5952,-2.5958,-2.5966,-2.5983,-2.5981,-2.5996,-2.6011,-2.6002,-2.6024,-2.6028,-2.6043,-2.6046,-2.6063,-2.6048,-2.6059,-2.6062,-2.6064,-2.6068,-2.5984,-2.6065,-2.6065,-2.6065,-2.6064,-2.6064,0,-2.5992,-2.5994,-2.6011,-2.6024,-2.6038,-2.6021,-2.603,-2.6042,-2.6062,-2.6068,-2.6082,-2.6103,-2.612,-2.6116,-2.6131,-2.6145,-2.6137,-2.6149,-2.6147,-2.6147,-2.6081,-2.6072,-2.6155,-2.6155,-2.6155,-2.6155,-2.6155,-2.6155,-2.6035,-2.6067,-2.6063,-2.6097,-2.6099,-2.6121,-2.6127,-2.6135,-2.614,-2.6165,-2.6179,-2.6177,-2.6179,-2.6194,-2.6208,-2.6207,-2.6212,-2.6228,-2.6223,-2.6161,-2.6152,-2.6143,-2.6135,-2.6229,-2.623,-2.6287,-2.6288,-2.6288]},{"header":{"parameterUnit":"m.s-1","parameterCategory":1,"la1":30.2991,"la2":30.254,"lo1":-89.0895,"lo2":-89.0444,"dy":0.0017,"dx":0.0017,"nx":28,"ny":28,"refTime":"2023-10-28T03:00:00:Z","depth":0,"parameterNumber":3,"parameterNumberName":"V-component_of_WINDS"},"data":[0,0,0,0,0,0,0,0,0,0,0,0,0,0,0,0,0,0,0,0,0,0,0,0,0,0,0,0,0,0,0,0,0,0,0,0,0,0,0,0,0,0,0,0,0,0,0,0,0,0,0,0,0,0,0,0,0,0,0.8411,0.8411,0,0.8414,0.8414,0.8414,0.8345,0.8343,0.8341,0.834,0.8344,0.8345,0.8347,0,0,0,0,0,0,0,0,0,0,0,0,0,0.8345,0.8346,0.8411,0.8411,0.8411,0.8414,0.8414,0.8414,0.8345,0.8343,0.8341,0.8339,0.8343,0.8345,0.8347,0,0,0,0,0,0,0,0,0,0,0,0,0,0.8363,0.8347,0.8411,0.8377,0.8374,0.8414,0.8414,0.8414,0.8346,0.8343,0.834,0.8338,0.8342,0.8345,0.8348,0.8421,0,0,0.8356,0.8357,0,0,0,0,0,0,0,0,0.8362,0.8366,0.8382,0.8379,0.8376,0.8376,0.8392,0.8417,0.8347,0.8357,0.834,0.8336,0.8357,0.8358,0.8365,0.8421,0.8421,0.8356,0.8358,0.8359,0.836,0,0,0,0,0,0,0,0.8361,0.8365,0.8412,0.8382,0.8379,0.8362,0.8361,0.8397,0.8372,0.8355,0.835,0.8352,0.8355,0.8363,0.8365,0.8421,0.8356,0.8359,0.8361,0.8362,0.8539,0.8542,0,0,0,0,0,0,0.8364,0.8365,0.8412,0.8412,0.8362,0.8365,0.8365,0.8379,0.8372,0.8368,0.8354,0.8349,0.8359,0.8361,0.8365,0.8451,0.8359,0.8362,0.8363,0.8536,0.854,0.8543,0,0,0,0,0,0,0.8363,0.8369,0.8412,0.8387,0.8391,0.8369,0.8386,0.8381,0.8388,0.8371,0.8366,0.8367,0.8357,0.8361,0.8408,0.845,0.8363,0.8366,0.8533,0.8537,0.8541,0.8625,0,0,0,0,0,0,0.8362,0.8369,0.8397,0.8388,0.8393,0.8455,0.8389,0.8383,0.8393,0.8386,0.8381,0.8378,0.8355,0.8404,0.8411,0.8453,0.8368,0.8529,0.8535,0.854,0.8618,0.8631,0.8643,0,0,0,0,0,0.836,0.842,0.8399,0.8405,0.8427,0.8458,0.846,0.8433,0.8397,0.8425,0.8414,0.8378,0.8444,0.8409,0.8416,0.846,0.8526,0.8533,0.854,0.8612,0.8629,0.8643,0,0,0,0,0,0,0.8434,0.8418,0.8394,0.8454,0.8458,0.8446,0.848,0.8451,0.8465,0.8458,0.8423,0.8423,0.8476,0.8472,0.8434,0.8531,0.8479,0.8487,0.8532,0.8547,0.8559,0.856,0.837,0,0,0,0,0,0.8457,0.8483,0.8468,0.8522,0.8525,0.8503,0.8515,0.8493,0.8496,0.8498,0.849,0.8494,0.8516,0.8531,0.855,0.8616,0.8615,0.865,0.8662,0.8673,0.8681,0.8717,0.8733,0.8566,0.8566,0.8566,0,0,0.8505,0.85,0.8519,0.8537,0.8537,0.8566,0.8504,0.8537,0.8558,0.8502,0.8547,0.8542,0.8544,0.8602,0.8627,0.86,0.8727,0.8681,0.869,0.8692,0.8726,0.8742,0.8756,0.857,0.857,0.8569,0,0,0.8609,0.8607,0.8652,0.8654,0.8656,0.864,0.8651,0.8644,0.8639,0.8683,0.8642,0.8666,0.8704,0.8708,0.8715,0.8821,0.8789,0.8828,0.8894,0.893,0.8943,0.8954,0.8994,0.9008,0.8836,0.8836,0.8836,0,0.8669,0.871,0.8679,0.8715,0.8724,0.8675,0.8721,0.8725,0.8733,0.8741,0.8711,0.8758,0.8756,0.8815,0.8841,0.8847,0.886,0.8829,0.8943,0.8955,0.8965,0.9002,0.9017,0.8841,0.884,0.884,0.8839,0,0.8785,0.8814,0.8851,0.886,0.8873,0.8914,0.889,0.8907,0.8884,0.8872,0.8919,0.8914,0.8932,0.8944,0.8922,0.9,0.8984,0.8949,0.8896,0.8986,0.9021,0.9034,0.8847,0.8846,0.8844,0.8843,0,0,0.8936,0.8928,0.8942,0.8946,0.8945,0.8967,0.9006,0.9023,0.904,0.9047,0.9079,0.9113,0.9081,0.9089,0.9066,0.9098,0.9184,0.9059,0.9059,0.9084,0.9272,0.9299,0.9316,0.9162,0.9165,0.9167,0.9272,0,0.9038,0.9104,0.9077,0.9146,0.9173,0.9127,0.9161,0.9164,0.9154,0.9176,0.9164,0.9189,0.9144,0.9149,0.9178,0.9167,0.9221,0.9159,0.9193,0.9195,0.9196,0.9334,0.9363,0.9463,0.9285,0.9287,0.9289,0,0.9165,0.9178,0.925,0.9245,0.9256,0.9287,0.9301,0.9323,0.9325,0.9316,0.9325,0.9296,0.9334,0.9281,0.9333,0.9292,0.9304,0.9301,0.9304,0.9308,0.9249,0.9343,0.9494,0.951,0.9309,0.9308,0.9306,0,0.9271,0.9306,0.9354,0.9359,0.9353,0.9377,0.9375,0.9375,0.9388,0.94,0.9409,0.9425,0.9435,0.9449,0.9426,0.9388,0.9483,0.9426,0.9477,0.9478,0.95,0.95,0.9657,0.9505,0.9505,0.9505,0.9504,0,0.9389,0.9435,0.9401,0.9431,0.9482,0.945,0.9501,0.9495,0.9495,0.9523,0.9484,0.9511,0.9477,0.9502,0.9483,0.9531,0.9535,0.9529,0.9524,0.9534,0.9535,0.9543,0.9536,0.9508,0.9508,0.9507,0.9506,0,0.9516,0.9495,0.9544,0.9535,0.9534,0.9572,0.9564,0.9592,0.9578,0.9615,0.9621,0.9601,0.9627,0.9605,0.963,0.9618,0.9682,0.9666,0.9681,0.9678,0.973,0.9726,0.9899,0.9921,0.9754,0.9755,0.9757,0,0.9593,0.9628,0.9623,0.9639,0.964,0.9666,0.9679,0.9649,0.9665,0.9671,0.9698,0.9721,0.9738,0.9782,0.977,0.9789,0.9775,0.9834,0.9778,0.9787,0.9778,0.9777,0.9781,0.9846,0.9848,0.985,0.9851,0,0.9734,0.9722,0.9742,0.9759,0.9776,0.9788,0.9797,0.9812,0.9782,0.9801,0.9828,0.9841,0.9867,0.9891,0.9907,0.9905,0.9874,0.9869,0.9882,0.9893,0.9902,0.99,0.9715,0.9866,0.9864,0.9863,0.9862,0.9862,0.9839,0.9869,0.987,0.9894,0.9898,0.9907,0.9933,0.9923,0.9945,0.9964,0.9945,0.9978,0.998,0.9998,1.0001,1.0026,1.0001,1.002,1.0025,1.003,1.0039,0.9896,1.0028,1.0028,1.0028,1.0027,1.0027,0,0.9979,0.9978,1.0001,1.0015,1.0034,1.0002,1.001,1.0029,1.0058,1.0063,1.0081,1.0112,1.0135,1.0125,1.0145,1.0168,1.0154,1.0174,1.0173,1.0174,1.0059,1.0046,1.0185,1.0185,1.0185,1.0185,1.0185,1.0185,1.0055,1.0103,1.0092,1.0142,1.0139,1.0172,1.0179,1.0188,1.0192,1.0229,1.0248,1.0241,1.024,1.026,1.028,1.0276,1.0287,1.0313,1.0304,1.0197,1.0182,1.0167,1.0155,1.0314,1.0315,1.0417,1.0418,1.0419]}]]